Location: Arrien
(42.8963°N, 1.0429°E)
Time: 15:06:46
(UTC+00:00)

CUTE 1.7 + AOD 2 - Visible Passes

Search period start: 11 April 2026 00:00
Search period end: 21 April 2026 00:00
Orbit: 535 x 545 km, 97.8° (Epoch: 11 April)

Date Brightness Start Highest point End Pass type
(mag) Time Alt. Az. Time Alt. Az. Time Alt. Az.
11 Apr ? 04:05:44 10° NNE 04:09:33 47° E 04:13:18 10° S visible
12 Apr ? 03:58:23 10° NNE 04:02:04 38° E 04:05:42 10° SSE visible
13 Apr ? 03:51:03 10° NNE 03:54:34 31° E 03:58:02 10° SSE visible
14 Apr ? 03:43:45 10° NE 03:47:03 25° E 03:50:18 10° SSE visible
15 Apr ? 03:36:30 10° NE 03:39:31 21° E 03:42:30 10° SE visible
16 Apr ? 03:29:19 10° NE 03:31:58 17° E 03:34:35 10° SE visible
17 Apr ? 03:22:16 10° ENE 03:24:24 14° E 03:26:32 10° SE visible
18 Apr ? 03:15:26 10° ENE 03:16:49 12° E 03:18:11 10° ESE visible
20 Apr ? 04:32:42 10° N 04:36:38 83° WNW 04:40:30 10° SSW visible
